Flag for Peru Weather past 2 weeks in Arequipa, Arequipa, Peru

Now
54 °F

Sunny.


Feels Like: 53 °F
Forecast: 51 / 69 °F
Wind: 3 mph from Northeast

Location: Arequipa Airport

Current Time: Apr 18, 2015 at 9:16:49 AM

Latest Report: Apr 18, 2015 at 7:00 AM


Visibility: 10 mi

Pressure: 30.27 "Hg

Humidity: 54%

Dew point: 37 °F

Location of ArequipaLocation

Historic Weather in Arequipa — Graph

°F

Arequipa temperature yesterday

Maximum temperature yesterday: 68 °F (at 10:00 AM)
Minimum temperature yesterday: 52 °F (at 3:00 AM)
Average temperature yesterday: 59 °F

Past Weeks' High & Low Weather Summary

 TemperatureHumidityPressure
High73 °F (Apr 14, 12:00 PM)94% (Apr 6, 1:00 AM)30.39 "Hg (Apr 6, 1:00 AM)
Low48 °F (Apr 6, 5:00 AM)24% (Apr 17, 9:00 AM)30.18 "Hg (Apr 4, 4:00 AM)
Average60 °F65%30.29 "Hg
* Reported Apr 3 7:00 AM — Apr 18 7:00 AM, Arequipa, Weather by CustomWeather, © 2015

Note: Actual official high and low records may vary slightly from our data, if they occured in-between our weather recording intervals... More about our weather records

Advertising

Arequipa weather history for previous 24 hours

 ConditionsComfort  
Time TempWeatherWind HumidityBarometerVisibility
7:00 AM
Sat, Apr 18
54 °FSunny.3 mph54%30.27 "Hg10 mi
6:00 AM52 °FSunny.6 mph54%30.24 "Hg10 mi
5:00 AM52 °FClear.7 mph54%30.24 "Hg10 mi
4:00 AM52 °FClear.7 mph54%30.24 "Hg10 mi
3:00 AM52 °FClear.5 mph58%30.24 "Hg10 mi
2:00 AM55 °FPassing clouds.6 mph44%30.24 "HgN/A
1:00 AM54 °FPassing clouds.3 mph47%30.27 "HgN/A
12:00 AM55 °FPassing clouds.No wind47%30.30 "HgN/A
11:00 PM
Fri, Apr 17
59 °FPassing clouds.No wind59%30.30 "HgN/A
10:00 PM59 °FPassing clouds.3 mph77%30.33 "HgN/A
9:00 PM59 °FPassing clouds.2 mph72%30.33 "HgN/A
8:00 PM59 °FPassing clouds.3 mph77%30.33 "HgN/A
7:00 PM57 °FPassing clouds.2 mph82%30.30 "HgN/A
6:00 PM57 °FPassing clouds.3 mph82%30.30 "HgN/A
5:00 PM59 °FScattered clouds.9 mph77%30.30 "HgN/A
4:00 PM63 °FScattered clouds.10 mph64%30.27 "HgN/A
3:00 PM64 °FScattered clouds.13 mph56%30.27 "HgN/A
2:00 PM64 °FScattered clouds.12 mph52%30.30 "HgN/A
1:00 PM64 °FPartly sunny.14 mph52%30.30 "HgN/A
12:00 PM66 °FPassing clouds.14 mph43%30.30 "HgN/A
11:00 AM66 °FPassing clouds.12 mph37%30.33 "HgN/A
10:00 AM68 °FPassing clouds.10 mph24%30.36 "HgN/A
9:00 AM64 °FSunny.8 mph24%30.36 "Hg10 mi
Weather by CustomWeather, © 2015

See weather overviewHow to use our weather pages